Погода в Мбомбеле

ЮАР     25°28′22″S   30°58′37″E
темп.,
°C
ветер,
м/с
пор.,
м/с
влажн.,
%
обл.,
%
осадки,
мм/ч
давл.,
гПа
погр.,
м
15 апреля, чт
чт1523:00+17з22460 0.0 102019
02:00+16з22502 0.0 101919
05:00+14зюз11565 0.0 102012
08:00+20з11435 0.0 1021209
11:00+28всв22330 0.0 10191075
14:00+31всв33270 0.0 10141772
17:00+27св47395 0.0 1013586
20:00+19ю11639 0.0 101711
16 апреля, пт
пт1623:00+17юз217115 0.0 101816
02:00+16ююз11768 0.0 101711
05:00+15зюз11833 0.1 102011
08:00+18в0277100 0.1 1023240
11:00+17вюв3680100 0.3 1024662
14:00+17вюв3470100 0.4 1024805
17:00+16юв2368100 0.1 1025278
20:00+14вюв4869100 0.2 1028841
17 апреля, сб
сб1723:00+13вюв1369100 0.0 1029413
02:00+12ююв117281 0.0 1028129
05:00+9ю11894 0.0 102911
08:00+13ююз11650 0.0 1029332
11:00+20всв11360 0.0 10271297
14:00+22всв22310 0.0 10231737
17:00+20всв35390 0.0 1023472
20:00+12зсз11624 0.0 102711
18 апреля, вс
вс1823:00+10зсз11743 0.0 102710
02:00+9з11815 0.0 102714
05:00+8з11835 0.0 102715
08:00+14з12560 0.0 1027251
11:00+24всв22370 0.0 1024963
14:00+27всв32310 0.0 10201454
17:00+23св36400 0.0 1020410
20:00+15ссз01680 0.0 102311
19 апреля, пн
пн1923:00+13зюз11782 0.0 102410
02:00+12з22835 0.0 102318
05:00+11з22874 0.0 102318
08:00+17з12560 0.0 1023231
11:00+28в22280 0.0 1020956
14:00+30всв46210 0.0 10172229
17:00+25всв37300 0.0 1018276
20:00+16зюз11540 0.0 102211